User: anonymous   Login
Location: Ciserano
(45.5833°N, 9.6000°E)
Time: 02:32:29
(UTC+00:00)
Language:

NOSS 3-2 (C) - Orbit

View from above orbital plane
View from above orbital plane
View from above satellite
View from above satellite

Ground track
Ground track

The orbit data is extracted from the following two-line orbital elements,

1 28097U 03054C   21056.07519235 0.00000000  00000-0  00000-0 0    07
2 28097  63.4159 112.8355 0424905 359.5284   0.4716 13.40773311    09
Epoch (UTC): 25 February 2021 01:48:16
Eccentricity: 0.0424905
inclination: 63.4159°
perigee height: 788 km
apogee height: 1424 km
right ascension of ascending node: 112.8355°
argument of perigee: 359.5284°
revolutions per day: 13.40773311
mean anomaly at epoch: 0.4716°
orbit number at epoch: 0

The dashed part of the orbit path shows where the satellite is in the earth's shadow,  

DLR